Year,Month,Day,Hour,Minute,Value (Times are PST for temperature in C)
2015,08,03,00,00,18.20
2015,08,03,00,01,18.20
2015,08,03,00,02,18.20
2015,08,03,00,03,18.20
2015,08,03,00,04,18.30
2015,08,03,00,05,18.30
2015,08,03,00,06,18.30
2015,08,03,00,07,18.30
2015,08,03,00,08,18.30
2015,08,03,00,09,18.40
2015,08,03,00,10,18.40
2015,08,03,00,11,18.40
2015,08,03,00,12,18.40
2015,08,03,00,13,18.40
2015,08,03,00,14,18.40
2015,08,03,00,15,18.40
2015,08,03,00,16,18.40
2015,08,03,00,17,18.40
2015,08,03,00,18,18.40
2015,08,03,00,19,18.40
2015,08,03,00,20,18.50
2015,08,03,00,21,18.60
2015,08,03,00,22,18.70
2015,08,03,00,23,18.80
2015,08,03,00,24,19.00
2015,08,03,00,25,19.10
2015,08,03,00,26,19.20
2015,08,03,00,27,19.30
2015,08,03,00,28,19.40
2015,08,03,00,29,19.50
2015,08,03,00,30,19.60
2015,08,03,00,31,19.70
2015,08,03,00,32,19.80
2015,08,03,00,33,19.90
2015,08,03,00,34,19.90
2015,08,03,00,35,20.00
2015,08,03,00,36,20.10
2015,08,03,00,37,20.10
2015,08,03,00,38,20.20
2015,08,03,00,39,20.30
2015,08,03,00,40,20.30
2015,08,03,00,41,20.40
2015,08,03,00,42,20.40
2015,08,03,00,43,20.40
2015,08,03,00,44,20.50
2015,08,03,00,45,20.50
2015,08,03,00,46,20.50
2015,08,03,00,47,20.60
2015,08,03,00,48,20.60
2015,08,03,00,49,20.60
2015,08,03,00,50,20.60
2015,08,03,00,51,20.60
2015,08,03,00,52,20.50
2015,08,03,00,53,20.50
2015,08,03,00,54,20.50
2015,08,03,00,55,20.50
2015,08,03,00,56,20.50
2015,08,03,00,57,20.40
2015,08,03,00,58,20.40
2015,08,03,00,59,20.40
2015,08,03,01,00,20.40
2015,08,03,01,01,20.40
2015,08,03,01,02,20.40
2015,08,03,01,03,20.40
2015,08,03,01,04,20.30
2015,08,03,01,05,20.30
2015,08,03,01,06,20.30
2015,08,03,01,07,20.30
2015,08,03,01,08,20.30
2015,08,03,01,09,20.30
2015,08,03,01,10,20.20
2015,08,03,01,11,20.20
2015,08,03,01,12,20.20
2015,08,03,01,13,20.10
2015,08,03,01,14,20.10
2015,08,03,01,15,20.10
2015,08,03,01,16,20.10
2015,08,03,01,17,20.00
2015,08,03,01,18,20.00
2015,08,03,01,19,19.90
2015,08,03,01,20,19.90
2015,08,03,01,21,19.90
2015,08,03,01,22,19.90
2015,08,03,01,23,19.90
2015,08,03,01,24,19.80
2015,08,03,01,25,19.80
2015,08,03,01,26,19.80
2015,08,03,01,27,19.70
2015,08,03,01,28,19.70
2015,08,03,01,29,19.70
2015,08,03,01,30,19.60
2015,08,03,01,31,19.60
2015,08,03,01,32,19.50
2015,08,03,01,33,19.50
2015,08,03,01,34,19.40
2015,08,03,01,35,19.40
2015,08,03,01,36,19.40
2015,08,03,01,37,19.30
2015,08,03,01,38,19.30
2015,08,03,01,39,19.30
2015,08,03,01,40,19.20
2015,08,03,01,41,19.20
2015,08,03,01,42,19.10
2015,08,03,01,43,19.10
2015,08,03,01,44,19.00
2015,08,03,01,45,18.90
2015,08,03,01,46,18.80
2015,08,03,01,47,18.80
2015,08,03,01,48,18.70
2015,08,03,01,49,18.60
2015,08,03,01,50,18.60
2015,08,03,01,51,18.50
2015,08,03,01,52,18.50
2015,08,03,01,53,18.40
2015,08,03,01,54,18.40
2015,08,03,01,55,18.30
2015,08,03,01,56,18.30
2015,08,03,01,57,18.30
2015,08,03,01,58,18.30
2015,08,03,01,59,18.30
2015,08,03,02,00,18.20
2015,08,03,02,01,18.20
2015,08,03,02,02,18.20
2015,08,03,02,03,18.20
2015,08,03,02,04,18.20
2015,08,03,02,05,18.10
2015,08,03,02,06,18.00
2015,08,03,02,07,18.00
2015,08,03,02,08,17.90
2015,08,03,02,09,17.90
2015,08,03,02,10,17.80
2015,08,03,02,11,17.80
2015,08,03,02,12,17.80
2015,08,03,02,13,17.70
2015,08,03,02,14,17.70
2015,08,03,02,15,17.60
2015,08,03,02,16,17.60
2015,08,03,02,17,17.50
2015,08,03,02,18,17.50
2015,08,03,02,19,17.40
2015,08,03,02,20,17.30
2015,08,03,02,21,17.30
2015,08,03,02,22,17.20
2015,08,03,02,23,17.20
2015,08,03,02,24,17.20
2015,08,03,02,25,17.20
2015,08,03,02,26,17.10
2015,08,03,02,27,17.10
2015,08,03,02,28,17.20
2015,08,03,02,29,17.20
2015,08,03,02,30,17.20
2015,08,03,02,31,17.20
2015,08,03,02,32,17.20
2015,08,03,02,33,17.30
2015,08,03,02,34,17.30
2015,08,03,02,35,17.30
2015,08,03,02,36,17.30
2015,08,03,02,37,17.40
2015,08,03,02,38,17.40
2015,08,03,02,39,17.50
2015,08,03,02,40,17.60
2015,08,03,02,41,17.60
2015,08,03,02,42,17.70
2015,08,03,02,43,17.80
2015,08,03,02,44,17.80
2015,08,03,02,45,17.90
2015,08,03,02,46,17.90
2015,08,03,02,47,18.00
2015,08,03,02,48,18.10
2015,08,03,02,49,18.10
2015,08,03,02,50,18.10
2015,08,03,02,51,18.20
2015,08,03,02,52,18.20
2015,08,03,02,53,18.20
2015,08,03,02,54,18.20
2015,08,03,02,55,18.20
2015,08,03,02,56,18.20
2015,08,03,02,57,18.20
2015,08,03,02,58,18.20
2015,08,03,02,59,18.20
2015,08,03,03,00,18.20
2015,08,03,03,01,18.20
2015,08,03,03,02,18.20
2015,08,03,03,03,18.20
2015,08,03,03,04,18.20
2015,08,03,03,05,18.20
2015,08,03,03,06,18.20
2015,08,03,03,07,18.20
2015,08,03,03,08,18.20
2015,08,03,03,09,18.20
2015,08,03,03,10,18.10
2015,08,03,03,11,18.10
2015,08,03,03,12,18.10
2015,08,03,03,13,18.10
2015,08,03,03,14,18.00
2015,08,03,03,15,18.00
2015,08,03,03,16,18.00
2015,08,03,03,17,17.90
2015,08,03,03,18,17.90
2015,08,03,03,19,17.80
2015,08,03,03,20,17.80
2015,08,03,03,21,17.80
2015,08,03,03,22,17.70
2015,08,03,03,23,17.70
2015,08,03,03,24,17.60
2015,08,03,03,25,17.60
2015,08,03,03,26,17.50
2015,08,03,03,27,17.40
2015,08,03,03,28,17.40
2015,08,03,03,29,17.40
2015,08,03,03,30,17.30
2015,08,03,03,31,17.30
2015,08,03,03,32,17.30
2015,08,03,03,33,17.30
2015,08,03,03,34,17.30
2015,08,03,03,35,17.20
2015,08,03,03,36,17.20
2015,08,03,03,37,17.10
2015,08,03,03,38,17.10
2015,08,03,03,39,17.00
2015,08,03,03,40,17.00
2015,08,03,03,41,16.90
2015,08,03,03,42,16.80
2015,08,03,03,43,16.80
2015,08,03,03,44,16.70
2015,08,03,03,45,16.70
2015,08,03,03,46,16.70
2015,08,03,03,47,16.70
2015,08,03,03,48,16.70
2015,08,03,03,49,16.70
2015,08,03,03,50,16.80
2015,08,03,03,51,16.80
2015,08,03,03,52,16.80
2015,08,03,03,53,16.80
2015,08,03,03,54,16.60
2015,08,03,03,55,16.50
2015,08,03,03,56,16.30
2015,08,03,03,57,16.20
2015,08,03,03,58,16.00
2015,08,03,03,59,15.90
2015,08,03,04,00,15.70
2015,08,03,04,01,15.60
2015,08,03,04,02,15.50
2015,08,03,04,03,15.50
2015,08,03,04,04,15.40
2015,08,03,04,05,15.30
2015,08,03,04,06,15.30
2015,08,03,04,07,15.30
2015,08,03,04,08,15.20
2015,08,03,04,09,15.20
2015,08,03,04,10,15.20
2015,08,03,04,11,15.20
2015,08,03,04,12,15.30
2015,08,03,04,13,15.30
2015,08,03,04,14,15.30
2015,08,03,04,15,15.30
2015,08,03,04,16,15.20
2015,08,03,04,17,15.20
2015,08,03,04,18,15.20
2015,08,03,04,19,15.20
2015,08,03,04,20,15.20
2015,08,03,04,21,15.20
2015,08,03,04,22,15.20
2015,08,03,04,23,15.20
2015,08,03,04,24,15.20
2015,08,03,04,25,15.30
2015,08,03,04,26,15.30
2015,08,03,04,27,15.30
2015,08,03,04,28,15.30
2015,08,03,04,29,15.30
2015,08,03,04,30,15.20
2015,08,03,04,31,15.20
2015,08,03,04,32,15.20
2015,08,03,04,33,15.20
2015,08,03,04,34,15.10
2015,08,03,04,35,15.10
2015,08,03,04,36,15.10
2015,08,03,04,37,15.00
2015,08,03,04,38,15.00
2015,08,03,04,39,15.00
2015,08,03,04,40,15.00
2015,08,03,04,41,15.00
2015,08,03,04,42,15.00
2015,08,03,04,43,15.00
2015,08,03,04,44,15.00
2015,08,03,04,45,15.00
2015,08,03,04,46,14.90
2015,08,03,04,47,14.90
2015,08,03,04,48,14.90
2015,08,03,04,49,14.80
2015,08,03,04,50,14.90
2015,08,03,04,51,14.90
2015,08,03,04,52,14.90
2015,08,03,04,53,15.00
2015,08,03,04,54,15.00
2015,08,03,04,55,15.00
2015,08,03,04,56,15.00
2015,08,03,04,57,15.00
2015,08,03,04,58,15.00
2015,08,03,04,59,15.00
2015,08,03,05,00,14.90
2015,08,03,05,01,14.90
2015,08,03,05,02,14.80
2015,08,03,05,03,14.80
2015,08,03,05,04,14.70
2015,08,03,05,05,14.70
2015,08,03,05,06,14.70
2015,08,03,05,07,14.70
2015,08,03,05,08,14.60
2015,08,03,05,09,14.60
2015,08,03,05,10,14.60
2015,08,03,05,11,14.60
2015,08,03,05,12,14.50
2015,08,03,05,13,14.50
2015,08,03,05,14,14.50
2015,08,03,05,15,14.50
2015,08,03,05,16,14.50
2015,08,03,05,17,14.50
2015,08,03,05,18,14.50
2015,08,03,05,19,14.50
2015,08,03,05,20,14.50
2015,08,03,05,21,14.50
2015,08,03,05,22,14.50
2015,08,03,05,23,14.50
2015,08,03,05,24,14.50
2015,08,03,05,25,14.40
2015,08,03,05,26,14.40
2015,08,03,05,27,14.40
2015,08,03,05,28,14.40
2015,08,03,05,29,14.40
2015,08,03,05,30,14.30
2015,08,03,05,31,14.30
2015,08,03,05,32,14.30
2015,08,03,05,33,14.30
2015,08,03,05,34,14.30
2015,08,03,05,35,14.20
2015,08,03,05,36,14.20
2015,08,03,05,37,14.20
2015,08,03,05,38,14.20
2015,08,03,05,39,14.20
2015,08,03,05,40,14.20
2015,08,03,05,41,14.20
2015,08,03,05,42,14.20
2015,08,03,05,43,14.10
2015,08,03,05,44,14.10
2015,08,03,05,45,14.10
2015,08,03,05,46,14.10
2015,08,03,05,47,14.00
2015,08,03,05,48,14.00
2015,08,03,05,49,13.90
2015,08,03,05,50,13.90
2015,08,03,05,51,13.90
2015,08,03,05,52,13.90
2015,08,03,05,53,13.80
2015,08,03,05,54,13.80
2015,08,03,05,55,13.80
2015,08,03,05,56,13.80
2015,08,03,05,57,13.80
2015,08,03,05,58,13.80
2015,08,03,05,59,13.80
2015,08,03,06,00,13.80
2015,08,03,06,01,13.80
2015,08,03,06,02,13.80
2015,08,03,06,03,13.80
2015,08,03,06,04,13.80
2015,08,03,06,05,13.80
2015,08,03,06,06,13.80
2015,08,03,06,07,13.80
2015,08,03,06,08,13.80
2015,08,03,06,09,13.80
2015,08,03,06,10,13.80
2015,08,03,06,11,13.90
2015,08,03,06,12,13.90
2015,08,03,06,13,13.90
2015,08,03,06,14,13.90
2015,08,03,06,15,14.00
2015,08,03,06,16,14.00
2015,08,03,06,17,14.10
2015,08,03,06,18,14.10
2015,08,03,06,19,14.10
2015,08,03,06,20,14.10
2015,08,03,06,21,14.10
2015,08,03,06,22,14.10
2015,08,03,06,23,14.10
2015,08,03,06,24,14.10
2015,08,03,06,25,14.10
2015,08,03,06,26,14.10
2015,08,03,06,27,14.00
2015,08,03,06,28,14.00
2015,08,03,06,29,14.00
2015,08,03,06,30,14.00
2015,08,03,06,31,14.00
2015,08,03,06,32,14.00
2015,08,03,06,33,13.90
2015,08,03,06,34,14.00
2015,08,03,06,35,14.00
2015,08,03,06,36,14.00
2015,08,03,06,37,14.00
2015,08,03,06,38,14.10
2015,08,03,06,39,14.10
2015,08,03,06,40,14.10
2015,08,03,06,41,14.10
2015,08,03,06,42,14.00
2015,08,03,06,43,14.00
2015,08,03,06,44,14.00
2015,08,03,06,45,14.00
2015,08,03,06,46,13.90
2015,08,03,06,47,13.90
2015,08,03,06,48,14.00
2015,08,03,06,49,14.00
2015,08,03,06,50,14.00
2015,08,03,06,51,14.10
2015,08,03,06,52,14.20
2015,08,03,06,53,14.20
2015,08,03,06,54,14.30
2015,08,03,06,55,14.40
2015,08,03,06,56,14.50
2015,08,03,06,57,14.60
2015,08,03,06,58,14.70
2015,08,03,06,59,14.90
2015,08,03,07,00,15.00
2015,08,03,07,01,15.10
2015,08,03,07,02,15.30
2015,08,03,07,03,15.40
2015,08,03,07,04,15.50
2015,08,03,07,05,15.70
2015,08,03,07,06,15.80
2015,08,03,07,07,15.90
2015,08,03,07,08,16.00
2015,08,03,07,09,16.10
2015,08,03,07,10,16.20
2015,08,03,07,11,16.30
2015,08,03,07,12,16.30
2015,08,03,07,13,16.30
2015,08,03,07,14,16.30
2015,08,03,07,15,16.30
2015,08,03,07,16,16.30
2015,08,03,07,17,16.30
2015,08,03,07,18,16.30
2015,08,03,07,19,16.40
2015,08,03,07,20,16.40
2015,08,03,07,21,16.50
2015,08,03,07,22,16.60
2015,08,03,07,23,16.70
2015,08,03,07,24,16.80
2015,08,03,07,25,17.00
2015,08,03,07,26,17.10
2015,08,03,07,27,17.30
2015,08,03,07,28,17.40
2015,08,03,07,29,17.60
2015,08,03,07,30,17.70
2015,08,03,07,31,17.80
2015,08,03,07,32,17.90
2015,08,03,07,33,18.00
2015,08,03,07,34,18.10
2015,08,03,07,35,18.20
2015,08,03,07,36,18.30
2015,08,03,07,37,18.30
2015,08,03,07,38,18.40
2015,08,03,07,39,18.40
2015,08,03,07,40,18.50
2015,08,03,07,41,18.50
2015,08,03,07,42,18.50
2015,08,03,07,43,18.50
2015,08,03,07,44,18.50
2015,08,03,07,45,18.50
2015,08,03,07,46,18.50
2015,08,03,07,47,18.50
2015,08,03,07,48,18.50
2015,08,03,07,49,18.50
2015,08,03,07,50,18.50
2015,08,03,07,51,18.50
2015,08,03,07,52,18.60
2015,08,03,07,53,18.60
2015,08,03,07,54,18.60
2015,08,03,07,55,18.60
2015,08,03,07,56,18.60
2015,08,03,07,57,18.60
2015,08,03,07,58,18.70
2015,08,03,07,59,18.70
2015,08,03,08,00,18.80
2015,08,03,08,01,18.80
2015,08,03,08,02,18.90
2015,08,03,08,03,18.90
2015,08,03,08,04,18.90
2015,08,03,08,05,19.00
2015,08,03,08,06,19.00
2015,08,03,08,07,19.10
2015,08,03,08,08,19.10
2015,08,03,08,09,19.10
2015,08,03,08,10,19.10
2015,08,03,08,11,19.10
2015,08,03,08,12,19.20
2015,08,03,08,13,19.20
2015,08,03,08,14,19.30
2015,08,03,08,15,19.30
2015,08,03,08,16,19.30
2015,08,03,08,17,19.30
2015,08,03,08,18,19.20
2015,08,03,08,19,19.20
2015,08,03,08,20,19.10
2015,08,03,08,21,19.00
2015,08,03,08,22,19.00
2015,08,03,08,23,19.00
2015,08,03,08,24,19.00
2015,08,03,08,25,19.00
2015,08,03,08,26,19.10
2015,08,03,08,27,19.10
2015,08,03,08,28,19.10
2015,08,03,08,29,19.20
2015,08,03,08,30,19.20
2015,08,03,08,31,19.20
2015,08,03,08,32,19.30
2015,08,03,08,33,19.30
2015,08,03,08,34,19.40
2015,08,03,08,35,19.50
2015,08,03,08,36,19.50
2015,08,03,08,37,19.60
2015,08,03,08,38,19.70
2015,08,03,08,39,19.70
2015,08,03,08,40,19.80
2015,08,03,08,41,19.80
2015,08,03,08,42,19.80
2015,08,03,08,43,19.80
2015,08,03,08,44,19.90
2015,08,03,08,45,19.90
2015,08,03,08,46,19.90
2015,08,03,08,47,19.90
2015,08,03,08,48,20.00
2015,08,03,08,49,20.10
2015,08,03,08,50,20.10
2015,08,03,08,51,20.20
2015,08,03,08,52,20.20
2015,08,03,08,53,20.20
2015,08,03,08,54,20.20
2015,08,03,08,55,20.20
2015,08,03,08,56,20.20
2015,08,03,08,57,20.20
2015,08,03,08,58,20.30
2015,08,03,08,59,20.40
2015,08,03,09,00,20.50
2015,08,03,09,01,20.50
2015,08,03,09,02,20.60
2015,08,03,09,03,20.70
2015,08,03,09,04,20.70
2015,08,03,09,05,20.60
2015,08,03,09,06,20.60
2015,08,03,09,07,20.50
2015,08,03,09,08,20.40
2015,08,03,09,09,20.30
2015,08,03,09,10,20.20
2015,08,03,09,11,20.20
2015,08,03,09,12,20.10
2015,08,03,09,13,20.10
2015,08,03,09,14,20.10
2015,08,03,09,15,20.10
2015,08,03,09,16,20.10
2015,08,03,09,17,20.10
2015,08,03,09,18,20.10
2015,08,03,09,19,20.10
2015,08,03,09,20,20.10
2015,08,03,09,21,20.00
2015,08,03,09,22,20.00
2015,08,03,09,23,20.00
2015,08,03,09,24,19.90
2015,08,03,09,25,19.90
2015,08,03,09,26,19.80
2015,08,03,09,27,19.80
2015,08,03,09,28,19.70
2015,08,03,09,29,19.60
2015,08,03,09,30,19.60
2015,08,03,09,31,19.60
2015,08,03,09,32,19.60
2015,08,03,09,33,19.60
2015,08,03,09,34,19.70
2015,08,03,09,35,19.80
2015,08,03,09,36,19.80
2015,08,03,09,37,19.80
2015,08,03,09,38,19.70
2015,08,03,09,39,19.70
2015,08,03,09,40,19.70
2015,08,03,09,41,19.60
2015,08,03,09,42,19.60
2015,08,03,09,43,19.70
2015,08,03,09,44,19.70
2015,08,03,09,45,19.70
2015,08,03,09,46,19.70
2015,08,03,09,47,19.80
2015,08,03,09,48,19.80
2015,08,03,09,49,19.80
2015,08,03,09,50,19.80
2015,08,03,09,51,19.80
2015,08,03,09,52,19.80
2015,08,03,09,53,19.90
2015,08,03,09,54,19.90
2015,08,03,09,55,19.90
2015,08,03,09,56,20.00
2015,08,03,09,57,20.10
2015,08,03,09,58,20.10
2015,08,03,09,59,20.20
2015,08,03,10,00,20.30
2015,08,03,10,01,20.30
2015,08,03,10,02,20.40
2015,08,03,10,03,20.40
2015,08,03,10,04,20.50
2015,08,03,10,05,20.60
2015,08,03,10,06,20.70
2015,08,03,10,07,20.70
2015,08,03,10,08,20.80
2015,08,03,10,09,20.80
2015,08,03,10,10,20.70
2015,08,03,10,11,20.60
2015,08,03,10,12,20.50
2015,08,03,10,13,20.40
2015,08,03,10,14,20.30
2015,08,03,10,15,20.20
2015,08,03,10,16,20.10
2015,08,03,10,17,20.00
2015,08,03,10,18,19.90
2015,08,03,10,19,19.90
2015,08,03,10,20,19.90
2015,08,03,10,21,19.80
2015,08,03,10,22,19.80
2015,08,03,10,23,19.70
2015,08,03,10,24,19.70
2015,08,03,10,25,19.70
2015,08,03,10,26,19.70
2015,08,03,10,27,19.70
2015,08,03,10,28,19.80
2015,08,03,10,29,19.80
2015,08,03,10,30,19.80
2015,08,03,10,31,19.90
2015,08,03,10,32,19.90
2015,08,03,10,33,19.90
2015,08,03,10,34,19.90
2015,08,03,10,35,19.90
2015,08,03,10,36,19.80
2015,08,03,10,37,19.80
2015,08,03,10,38,19.70
2015,08,03,10,39,19.70
2015,08,03,10,40,19.70
2015,08,03,10,41,19.70
2015,08,03,10,42,19.70
2015,08,03,10,43,19.70
2015,08,03,10,44,19.70
2015,08,03,10,45,19.80
2015,08,03,10,46,19.90
2015,08,03,10,47,20.00
2015,08,03,10,48,20.10
2015,08,03,10,49,20.10
2015,08,03,10,50,20.00
2015,08,03,10,51,20.00
2015,08,03,10,52,19.90
2015,08,03,10,53,19.90
2015,08,03,10,54,19.90
2015,08,03,10,55,19.90
2015,08,03,10,56,20.00
2015,08,03,10,57,20.10
2015,08,03,10,58,20.20
2015,08,03,10,59,20.20
2015,08,03,11,00,20.30
2015,08,03,11,01,20.40
2015,08,03,11,02,20.50
2015,08,03,11,03,20.50
2015,08,03,11,04,20.50
2015,08,03,11,05,20.40
2015,08,03,11,06,20.40
2015,08,03,11,07,20.30
2015,08,03,11,08,20.30
2015,08,03,11,09,20.30
2015,08,03,11,10,20.30
2015,08,03,11,11,20.30
2015,08,03,11,12,20.30
2015,08,03,11,13,20.30
2015,08,03,11,14,20.40
2015,08,03,11,15,20.40
2015,08,03,11,16,20.40
2015,08,03,11,17,20.40
2015,08,03,11,18,20.40
2015,08,03,11,19,20.40
2015,08,03,11,20,20.40
2015,08,03,11,21,20.40
2015,08,03,11,22,20.50
2015,08,03,11,23,20.60
2015,08,03,11,24,20.60
2015,08,03,11,25,20.70
2015,08,03,11,26,20.70
2015,08,03,11,27,20.70
2015,08,03,11,28,20.70
2015,08,03,11,29,20.70
2015,08,03,11,30,20.80
2015,08,03,11,31,20.80
2015,08,03,11,32,20.80
2015,08,03,11,33,20.80
2015,08,03,11,34,20.90
2015,08,03,11,35,21.00
2015,08,03,11,36,21.10
2015,08,03,11,37,21.10
2015,08,03,11,38,21.10
2015,08,03,11,39,21.20
2015,08,03,11,40,21.20
2015,08,03,11,41,21.20
2015,08,03,11,42,21.20
2015,08,03,11,43,21.20
2015,08,03,11,44,21.30
2015,08,03,11,45,21.40
2015,08,03,11,46,21.40
2015,08,03,11,47,21.40
2015,08,03,11,48,21.40
2015,08,03,11,49,21.40
2015,08,03,11,50,21.40
2015,08,03,11,51,21.40
2015,08,03,11,52,21.40
2015,08,03,11,53,21.40
2015,08,03,11,54,21.20
2015,08,03,11,55,21.20
2015,08,03,11,56,21.10
2015,08,03,11,57,21.00
2015,08,03,11,58,21.00
2015,08,03,11,59,21.00
2015,08,03,12,00,21.00
2015,08,03,12,01,21.10
2015,08,03,12,02,21.10
2015,08,03,12,03,21.10
2015,08,03,12,04,21.10
2015,08,03,12,05,21.10
2015,08,03,12,06,21.10
2015,08,03,12,07,21.10
2015,08,03,12,08,21.20
2015,08,03,12,09,21.30
2015,08,03,12,10,21.40
2015,08,03,12,11,21.50
2015,08,03,12,12,21.50
2015,08,03,12,13,21.70
2015,08,03,12,14,21.80
2015,08,03,12,15,21.90
2015,08,03,12,16,22.00
2015,08,03,12,17,22.10
2015,08,03,12,18,22.10
2015,08,03,12,19,22.00
2015,08,03,12,20,22.00
2015,08,03,12,21,21.80
2015,08,03,12,22,21.80
2015,08,03,12,23,21.70
2015,08,03,12,24,21.60
2015,08,03,12,25,21.60
2015,08,03,12,26,21.50
2015,08,03,12,27,21.60
2015,08,03,12,28,21.60
2015,08,03,12,29,21.70
2015,08,03,12,30,21.80
2015,08,03,12,31,22.00
2015,08,03,12,32,22.10
2015,08,03,12,33,22.20
2015,08,03,12,34,22.30
2015,08,03,12,35,22.30
2015,08,03,12,36,22.40
2015,08,03,12,37,22.40
2015,08,03,12,38,22.50
2015,08,03,12,39,22.50
2015,08,03,12,40,22.40
2015,08,03,12,41,22.40
2015,08,03,12,42,22.30
2015,08,03,12,43,22.20
2015,08,03,12,44,22.10
2015,08,03,12,45,22.00
2015,08,03,12,46,22.00
2015,08,03,12,47,21.90
2015,08,03,12,48,21.80
2015,08,03,12,49,21.90
2015,08,03,12,50,21.90
2015,08,03,12,51,22.00
2015,08,03,12,52,22.00
2015,08,03,12,53,22.10
2015,08,03,12,54,22.20
2015,08,03,12,55,22.30
2015,08,03,12,56,22.40
2015,08,03,12,57,22.50
2015,08,03,12,58,22.50
2015,08,03,12,59,22.60
2015,08,03,13,00,22.60
2015,08,03,13,01,22.60
2015,08,03,13,02,22.70
2015,08,03,13,03,22.80
2015,08,03,13,04,22.90
2015,08,03,13,05,23.00
2015,08,03,13,06,23.10
2015,08,03,13,07,23.20
2015,08,03,13,08,23.30
2015,08,03,13,09,23.30
2015,08,03,13,10,23.30
2015,08,03,13,11,23.30
2015,08,03,13,12,23.20
2015,08,03,13,13,23.20
2015,08,03,13,14,23.20
2015,08,03,13,15,23.20
2015,08,03,13,16,23.20
2015,08,03,13,17,23.10
2015,08,03,13,18,23.00
2015,08,03,13,19,23.00
2015,08,03,13,20,22.90
2015,08,03,13,21,22.80
2015,08,03,13,22,22.80
2015,08,03,13,23,22.80
2015,08,03,13,24,22.70
2015,08,03,13,25,22.60
2015,08,03,13,26,22.60
2015,08,03,13,27,22.50
2015,08,03,13,28,22.50
2015,08,03,13,29,22.60
2015,08,03,13,30,22.70
2015,08,03,13,31,22.80
2015,08,03,13,32,22.80
2015,08,03,13,33,22.90
2015,08,03,13,34,22.90
2015,08,03,13,35,22.90
2015,08,03,13,36,22.90
2015,08,03,13,37,22.90
2015,08,03,13,38,22.90
2015,08,03,13,39,22.80
2015,08,03,13,40,22.80
2015,08,03,13,41,22.80
2015,08,03,13,42,22.80
2015,08,03,13,43,22.80
2015,08,03,13,44,22.80
2015,08,03,13,45,22.80
2015,08,03,13,46,22.80
2015,08,03,13,47,22.90
2015,08,03,13,48,23.00
2015,08,03,13,49,23.10
2015,08,03,13,50,23.10
2015,08,03,13,51,23.20
2015,08,03,13,52,23.20
2015,08,03,13,53,23.30
2015,08,03,13,54,23.30
2015,08,03,13,55,23.30
2015,08,03,13,56,23.30
2015,08,03,13,57,23.30
2015,08,03,13,58,23.40
2015,08,03,13,59,23.40
2015,08,03,14,00,23.30
2015,08,03,14,01,23.30
2015,08,03,14,02,23.20
2015,08,03,14,03,23.10
2015,08,03,14,04,23.00
2015,08,03,14,05,23.00
2015,08,03,14,06,22.90
2015,08,03,14,07,22.90
2015,08,03,14,08,22.80
2015,08,03,14,09,22.80
2015,08,03,14,10,22.70
2015,08,03,14,11,22.70
2015,08,03,14,12,22.70
2015,08,03,14,13,22.70
2015,08,03,14,14,22.80
2015,08,03,14,15,22.80
2015,08,03,14,16,22.80
2015,08,03,14,17,22.80
2015,08,03,14,18,22.80
2015,08,03,14,19,22.80
2015,08,03,14,20,22.80
2015,08,03,14,21,22.80
2015,08,03,14,22,22.80
2015,08,03,14,23,22.80
2015,08,03,14,24,22.80
2015,08,03,14,25,22.90
2015,08,03,14,26,22.90
2015,08,03,14,27,22.90
2015,08,03,14,28,22.90
2015,08,03,14,29,22.90
2015,08,03,14,30,22.80
2015,08,03,14,31,22.90
2015,08,03,14,32,22.90
2015,08,03,14,33,23.00
2015,08,03,14,34,23.00
2015,08,03,14,35,23.00
2015,08,03,14,36,23.00
2015,08,03,14,37,23.10
2015,08,03,14,38,23.10
2015,08,03,14,39,23.10
2015,08,03,14,40,23.10
2015,08,03,14,41,23.10
2015,08,03,14,42,23.10
2015,08,03,14,43,23.00
2015,08,03,14,44,23.10
2015,08,03,14,45,23.10
2015,08,03,14,46,23.20
2015,08,03,14,47,23.30
2015,08,03,14,48,23.30
2015,08,03,14,49,23.30
2015,08,03,14,50,23.30
2015,08,03,14,51,23.30
2015,08,03,14,52,23.30
2015,08,03,14,53,23.30
2015,08,03,14,54,23.40
2015,08,03,14,55,23.40
2015,08,03,14,56,23.50
2015,08,03,14,57,23.60
2015,08,03,14,58,23.70
2015,08,03,14,59,23.70
2015,08,03,15,00,23.70
2015,08,03,15,01,23.70
2015,08,03,15,02,23.70
2015,08,03,15,03,23.60
2015,08,03,15,04,23.60
2015,08,03,15,05,23.60
2015,08,03,15,06,23.50
2015,08,03,15,07,23.50
2015,08,03,15,08,23.40
2015,08,03,15,09,23.30
2015,08,03,15,10,23.20
2015,08,03,15,11,23.20
2015,08,03,15,12,23.10
2015,08,03,15,13,23.00
2015,08,03,15,14,23.00
2015,08,03,15,15,23.00
2015,08,03,15,16,23.00
2015,08,03,15,17,23.20
2015,08,03,15,18,23.20
2015,08,03,15,19,23.20
2015,08,03,15,20,23.30
2015,08,03,15,21,23.30
2015,08,03,15,22,23.30
2015,08,03,15,23,23.30
2015,08,03,15,24,23.20
2015,08,03,15,25,23.20
2015,08,03,15,26,23.20
2015,08,03,15,27,23.20
2015,08,03,15,28,23.20
2015,08,03,15,29,23.20
2015,08,03,15,30,23.20
2015,08,03,15,31,23.10
2015,08,03,15,32,23.10
2015,08,03,15,33,23.00
2015,08,03,15,34,22.90
2015,08,03,15,35,22.90
2015,08,03,15,36,22.90
2015,08,03,15,37,22.90
2015,08,03,15,38,23.00
2015,08,03,15,39,23.10
2015,08,03,15,40,23.10
2015,08,03,15,41,23.20
2015,08,03,15,42,23.20
2015,08,03,15,43,23.30
2015,08,03,15,44,23.30
2015,08,03,15,45,23.40
2015,08,03,15,46,23.40
2015,08,03,15,47,23.50
2015,08,03,15,48,23.50
2015,08,03,15,49,23.40
2015,08,03,15,50,23.30
2015,08,03,15,51,23.20
2015,08,03,15,52,23.10
2015,08,03,15,53,23.00
2015,08,03,15,54,22.90
2015,08,03,15,55,22.90
2015,08,03,15,56,22.90
2015,08,03,15,57,22.90
2015,08,03,15,58,22.90
2015,08,03,15,59,23.00
2015,08,03,16,00,23.00
2015,08,03,16,01,22.90
2015,08,03,16,02,22.90
2015,08,03,16,03,22.90
2015,08,03,16,04,22.90
2015,08,03,16,05,22.90
2015,08,03,16,06,22.90
2015,08,03,16,07,22.90
2015,08,03,16,08,22.90
2015,08,03,16,09,22.90
2015,08,03,16,10,22.90
2015,08,03,16,11,22.90
2015,08,03,16,12,22.90
2015,08,03,16,13,22.90
2015,08,03,16,14,22.90
2015,08,03,16,15,23.00
2015,08,03,16,16,23.00
2015,08,03,16,17,22.90
2015,08,03,16,18,22.90
2015,08,03,16,19,22.90
2015,08,03,16,20,22.80
2015,08,03,16,21,22.80
2015,08,03,16,22,22.70
2015,08,03,16,23,22.70
2015,08,03,16,24,22.70
2015,08,03,16,25,22.60
2015,08,03,16,26,22.60
2015,08,03,16,27,22.70
2015,08,03,16,28,22.70
2015,08,03,16,29,22.80
2015,08,03,16,30,22.90
2015,08,03,16,31,23.00
2015,08,03,16,32,23.10
2015,08,03,16,33,23.20
2015,08,03,16,34,23.20
2015,08,03,16,35,23.30
2015,08,03,16,36,23.30
2015,08,03,16,37,23.30
2015,08,03,16,38,23.40
2015,08,03,16,39,23.40
2015,08,03,16,40,23.40
2015,08,03,16,41,23.40
2015,08,03,16,42,23.40
2015,08,03,16,43,23.40
2015,08,03,16,44,23.50
2015,08,03,16,45,23.50
2015,08,03,16,46,23.50
2015,08,03,16,47,23.50
2015,08,03,16,48,23.50
2015,08,03,16,49,23.50
2015,08,03,16,50,23.50
2015,08,03,16,51,23.40
2015,08,03,16,52,23.50
2015,08,03,16,53,23.60
2015,08,03,16,54,23.70
2015,08,03,16,55,23.70
2015,08,03,16,56,23.70
2015,08,03,16,57,23.70
2015,08,03,16,58,23.60
2015,08,03,16,59,23.60
2015,08,03,17,00,23.50
2015,08,03,17,01,23.40
2015,08,03,17,02,23.30
2015,08,03,17,03,23.20
2015,08,03,17,04,23.20
2015,08,03,17,05,23.20
2015,08,03,17,06,23.20
2015,08,03,17,07,23.20
2015,08,03,17,08,23.20
2015,08,03,17,09,23.30
2015,08,03,17,10,23.30
2015,08,03,17,11,23.30
2015,08,03,17,12,23.30
2015,08,03,17,13,23.40
2015,08,03,17,14,23.50
2015,08,03,17,15,23.60
2015,08,03,17,16,23.60
2015,08,03,17,17,23.60
2015,08,03,17,18,23.60
2015,08,03,17,19,23.70